SCP
0 0 0 0 0 0 0 0 -0 -0 -0 -0 0 0 0 0 0 0 0 0 0 0 0 0 0 0 0 0 0 0 0 0 0 0 0 0 0 0 0 0 0 -0 -0
0 0 0 0 0 0 0 0 -0 -0 0 0 -0 0 0 0 0 0 0 0 0 0 0 -0 0 0 0 0 0 0 0 0 0 0 0 0 0 0 0 0 0 0 -0
0 0 0 0 0 0 0 0 0 -0 -0 0 0 0 0 0 0 0 0 0 0 0 0 -0 0 0 0 0 0 0 0 0 0 0 0 0 0 0 0 0 0 0 0
0 0 0 0 0 0 0 0 0 0 -0 -0 0 0 0 0 0 0 0 0 0 0 0 0 0 0 0 0 0 0 0 0 0 0 0 0 0 0 0 0 0 0 0
0 0 0 0 0 0 -0 -0 -0 0 0 0 -0 -0 0 0 0 0 0 0 0 0 0 0 0 0 0 0 0 0 0 0 0 0 0 0 0 -0 -0 -0 0 0 0
0 0 0 -0 -0 -0 -0 -0 -0 -0 -0 -0 0 -0 -0 0 0 0 0 0 0 0 0 0 0 0 0 -0 0 0 0 0 0 0 0 -0 -0 -0 0 -0 -0 -0 0
-0 -0 -0 -0 -0 -0 -0 -0 -0 -0 -0 0 0 0 0 0 0 0 0 0 0 0 0 0 -0 0 -0 0 0 0 -0 -0 -0 -0 -0 -0 0 -0 -0 -0 -0 -0 0
-0 -0 -0 0 -0 -0 -0 -0 0 -0 0 0 0 -0 -0 -0 0 0 0 0 0 0 0 0 0 0 -0 -0 -0 0 0 0 0 0 0 0 0 -0 -0 -0 -0 0 0
-0 -0 -0 -0 0 0 -0 0 0 0 0 0 0 0 -0 0 0 0 0 0 0 0 0 0 0 -0 -0 -0 -0 0 0 0 0 0 0 0 -0 0 0 -0 0 0 0
0 0 0 -0 0 0 0 0 0 0 0 0 -0 0 0 0 0 0 0 0 0 0 0 0 0 0 0 0 0 0 0 0 0 0 0 0 0 0 0 -0 0 0 0
0 0 0 -0 0 0 0 0 0 0 0 0 -0 -0 -0 0 0 0 0 0 0 0 0 0 0 0 0 0 0 0 0 -0 -0 0 0 0 -0 -0 -0 -0 0 0 0
0 -0 -0 0 -0 0 -0 0 0 0 0 0 0 0 0 0 0 0 0 0 0 -0 0 0 -0 -0 0 0 0 0 0 0 0 0 -0 0 0 0 0 0 0 0 0
-0 -0 -0 -0 0 -0 -0 -0 0 0 0 0 0 0 0 0 -0 -0 0 0 0 0 -0 -0 -0 -0 0 -0 -0 0 0 -0 0 0 0 0 0 0 0 0 0 0 0
-0 0 -0 -0 -0 0 0 0 0 0 0 0 0 0 0 0 -0 -0 -0 -0 -0 -0 -0 -0 -0 0 0 0 0 0 -0 -0 0 0 0 0 0 0 0 0 0 0 0
-0 -0 -0 0 0 0 0 0 0 0 0 0 0 0 0 0 -0 0 0 -0 -0 -0 0 -0 -0 -0 -0 -0 -0 -0 -0 0 0 0 0 0 0 0 0 0 0 0 0
-0 -0 -0 0 0 0 0 0 0 0 0 0 0 0 0 0 -0 -0 -0 -0 -0 -0 0 -0 -0 -0 -0 -0 -0 -0 0 0 0 0 0 0 0 0 0 0 0 0 0
-0 0 0 0 0 0 0 0 0 0 0 0 0 0 -0 -0 -0 -0 -0 -0 -0 -0 -0 0 0 0 -0 -0 0 0 0 0 0 0 0 0 0 0 0 0 0 0 0
-0 -0 0 0 0 0 0 0 0 0 0 0 0 0 0 -0 -0 0 -0 -0 0 0 0 0 0 0 0 0 0 0 0 0 0 0 0 0 0 0 0 0 0 0 0
0 0 0 0 0 0 0 0 0 0 0 0 0 0 0 0 0 0 0 0 0 0 0 0 0 0 0 0 0 0 0 0 0 0 0 0 0 0 0 0 0 0 0
0 0 0 0 0 0 0 0 0 0 0 0 0 0 0 0 0 0 0 0 0 0 0 0 0 0 0 0 0 0 0 0 0 0 0 0 0 0 0 0 0 0 0
0 0 0 0 0 0 0 0 0 0 0 0 0 0 0 0 0 0 0 0 0 0 0 0 0 0 0 0 0 0 0 0 0 0 0 0 0 0 0 0 0 0 0
0 0 0 0 0 0 0 0 0 0 0 0 0 0 0 0 0 0 0 0 0 0 0 0 0 0 0 0 0 0 0 0 0 0 0 0 0 0 0 0 0 0 0
0 0 0 0 0 0 0 0 0 0 0 0 0 0 0 0 0 0 0 0 0 0 0 0 0 0 0 0 0 0 0 0 0 0 0 0 0 0 0 0 0 0 0
0 0 0 0 0 0 0 0 0 0 0 0 0 0 0 0 0 0 0 0 0 0 0 0 0 0 0 0 0 0 0 0 0 0 0 0 0 0 0 0 0 0 0
0 0 0 0 0 0 0 0 0 0 0 0 0 0 0 0 0 0 0 0 0 0 0 0 0 0 0 0 0 0 0 0 0 0 0 0 0 0 0 0 0 0 0
0 0 0 0 0 0 0 0 0 0 0 0 0 0 0 0 0 0 0 0 0 0 0 0 0 0 0 0 0 0 0 0 0 0 0 0 0 0 0 0 0 0 0
Wind_Speed_500mb
17 15 7 2 9 7 9 5 8 14 23 20 17 14 5 6 6 8 11 9 12 12 13 13 16 20 36 37 30 40 43 41 48 46 56 57 71 53 58 46 33 28 24
17 13 9 3 6 4 6 6 5 16 19 17 13 11 12 10 11 15 14 16 12 10 11 18 20 16 30 40 32 50 39 33 45 53 55 56 62 52 50 41 27 28 26
18 17 9 2 2 3 5 11 11 15 19 18 14 16 20 19 22 19 18 19 18 17 17 18 19 25 36 37 35 34 37 34 35 50 50 55 67 55 45 30 23 27 25
19 19 12 5 3 5 14 17 18 21 25 22 22 23 23 21 19 19 18 16 16 18 17 21 24 23 28 33 33 34 35 38 46 52 48 67 58 46 38 33 26 23 23
22 20 14 12 6 11 24 26 29 30 26 24 25 26 24 21 19 17 20 16 16 20 21 24 23 20 22 35 46 42 42 38 49 46 51 51 49 46 34 27 29 27 24
26 23 19 17 12 20 29 30 29 27 26 24 21 20 21 19 16 13 7 3 6 16 24 26 29 34 44 37 33 28 29 53 51 47 43 41 39 34 28 26 32 30 27
29 27 27 24 20 24 30 30 26 21 21 21 18 15 16 18 18 18 11 11 16 23 30 33 47 44 43 40 43 50 49 33 45 44 29 25 24 26 27 29 32 33 31
34 31 34 31 22 23 27 26 23 19 19 18 15 15 19 23 22 24 17 27 26 28 34 36 54 53 45 48 46 39 37 41 37 22 19 23 28 30 30 33 32 29 22
40 35 37 34 26 30 24 21 18 16 18 17 15 17 21 31 26 20 24 29 34 40 36 39 41 45 52 41 32 28 28 28 29 29 30 30 30 32 29 25 22 19 18
44 41 36 40 33 29 23 21 16 13 15 17 17 18 20 29 30 25 27 33 38 38 48 54 52 49 44 33 25 32 30 28 26 29 31 26 24 26 24 22 18 17 16
44 41 38 43 38 31 27 22 20 11 13 16 20 22 25 27 30 29 29 30 35 43 47 45 47 46 34 27 31 31 29 27 28 31 31 25 21 21 22 21 18 14 9
47 46 42 44 42 39 29 30 23 14 12 18 19 22 23 26 26 28 29 25 28 35 38 41 39 32 29 31 32 28 22 16 12 15 16 17 16 17 15 12 11 9 9
48 49 47 41 45 43 37 33 29 24 16 19 24 25 25 26 25 24 26 26 25 25 29 30 29 29 32 34 33 27 20 15 13 13 14 14 15 16 17 17 14 14 12
53 54 50 47 49 47 43 37 34 31 26 19 26 31 32 30 29 29 32 31 28 26 27 31 31 32 33 33 33 31 27 24 19 20 20 19 20 22 21 19 19 15 12
57 56 55 52 48 48 47 45 43 36 30 23 23 28 37 39 36 33 32 33 32 31 31 31 37 39 39 37 36 35 33 32 30 29 25 23 21 23 28 27 23 15 10
61 62 61 58 57 53 49 49 46 40 34 29 22 16 31 27 32 35 33 29 29 31 35 38 39 41 44 43 42 41 40 38 37 32 29 27 28 28 31 31 25 19 17
66 65 68 62 61 63 60 55 55 49 44 40 35 28 26 29 33 32 35 42 40 40 42 40 41 43 46 48 49 50 48 45 41 37 34 34 32 35 36 35 32 29 30
69 65 66 68 67 63 66 61 56 55 54 49 41 39 35 40 40 37 42 42 53 59 57 51 46 46 47 52 54 55 54 52 49 45 43 42 40 43 43 42 40 38 35
75 73 69 70 68 65 59 62 60 54 52 52 48 47 45 47 48 50 52 56 56 60 62 60 56 52 50 50 54 56 58 58 55 53 52 50 48 49 51 49 45 42 38
77 75 75 72 73 70 68 64 64 62 55 51 49 47 46 50 58 62 66 65 64 61 59 61 62 61 58 56 56 58 59 61 61 60 58 55 55 58 57 53 55 50 40
78 79 79 80 76 76 73 73 70 70 68 60 51 42 41 47 49 60 64 65 64 61 58 56 57 61 65 66 63 63 64 64 64 62 59 56 60 62 57 57 49 45 30
73 76 78 82 86 81 80 74 71 67 68 70 63 56 51 50 50 53 61 63 62 60 58 56 55 55 57 62 67 67 68 69 68 67 64 60 61 64 59 58 50 39 29
77 72 75 77 79 85 84 84 76 69 65 62 64 66 60 57 53 53 57 59 62 63 61 59 59 57 57 58 59 67 73 76 76 72 69 70 74 75 70 59 48 39 46
61 81 72 73 75 78 76 81 81 78 70 65 64 64 59 55 49 49 48 48 51 54 56 57 59 59 57 59 62 68 66 72 78 79 75 74 82 80 74 70 58 52 45
63 67 82 70 71 68 68 65 66 68 71 66 60 58 61 66 58 51 50 48 50 56 57 58 60 62 64 64 64 68 73 74 74 72 72 79 79 79 78 72 57 57 50
63 73 79 67 59 62 56 47 50 52 58 57 57 61 63 62 64 64 49 45 48 50 52 53 56 59 60 62 61 59 65 69 67 65 66 73 74 81 76 58 60 58 46
Wind_Direction_500mb
173 175 183 278 360 16 31 82 103 148 161 162 170 184 176 137 128 115 125 120 144 151 157 157 142 165 181 178 171 177 173 174 147 160 150 155 164 156 147 141 146 141 136
176 178 177 209 349 11 25 125 112 164 166 169 178 175 150 129 110 100 96 91 104 130 166 163 157 160 181 174 173 175 170 166 162 150 158 158 167 149 138 126 125 129 125
187 188 189 173 13 25 67 126 128 144 158 158 147 139 133 119 109 98 97 101 99 95 93 132 144 157 172 187 176 176 172 173 166 149 152 162 161 151 150 145 126 125 126
180 180 174 125 95 58 122 127 135 134 137 136 131 134 135 128 110 104 104 101 94 92 103 129 128 154 159 164 173 164 166 162 151 133 131 148 158 146 147 149 146 139 136
180 182 164 143 95 103 125 127 126 127 128 128 127 131 132 131 132 115 113 98 87 93 112 123 123 154 153 154 161 157 154 155 153 145 145 147 151 165 162 159 155 144 143
184 181 166 150 106 116 128 125 126 126 127 129 128 124 131 136 142 148 153 91 119 123 130 128 144 135 131 133 152 163 154 155 157 158 153 155 159 164 162 156 156 153 136
186 180 168 158 121 121 124 117 119 133 138 133 131 130 145 143 141 144 115 127 128 133 139 135 136 132 137 137 130 137 143 145 140 136 142 157 167 165 156 153 153 140 139
191 184 177 170 157 130 130 118 105 122 142 148 137 131 145 152 148 142 121 128 121 124 136 137 152 141 142 135 131 134 134 145 156 165 135 137 148 155 141 136 142 150 148
195 189 186 184 183 173 158 135 108 97 131 142 139 127 144 142 135 136 138 128 126 123 129 156 157 151 149 140 138 139 147 153 148 140 131 133 138 148 153 161 169 171 169
194 191 188 188 185 182 175 171 148 98 127 132 138 133 136 150 138 132 134 135 134 131 134 131 139 144 143 139 136 140 143 142 147 153 150 144 149 161 161 169 179 179 183
195 191 193 193 190 187 184 181 172 150 136 134 134 138 140 141 139 135 146 147 146 142 142 145 145 148 147 141 133 132 133 126 127 143 150 146 147 152 156 159 161 170 202
197 198 197 197 195 195 192 185 182 182 158 164 150 143 149 152 150 143 138 140 141 151 153 152 153 158 160 157 148 142 144 147 144 149 160 159 156 160 168 179 197 221 239
199 200 200 199 202 201 200 199 195 194 190 181 181 170 160 161 163 164 159 157 154 160 166 166 173 176 177 177 175 178 182 185 200 199 192 189 195 217 230 236 216 214 246
200 202 198 204 205 206 208 211 208 207 204 203 197 194 189 182 176 172 168 164 163 167 171 180 178 180 182 188 196 201 204 209 219 214 208 214 223 223 215 216 225 232 255
202 205 203 203 208 207 211 212 215 219 222 218 220 210 205 203 196 190 188 186 183 186 191 195 200 202 203 204 204 208 212 216 219 218 226 239 234 222 214 221 226 231 243
203 206 207 205 209 209 210 216 219 220 220 228 238 245 224 219 212 211 207 206 210 211 211 214 213 214 215 214 215 218 219 220 221 227 238 246 245 235 227 219 219 224 229
209 205 207 207 209 215 215 217 223 226 227 231 234 233 234 231 219 216 222 226 227 229 230 232 230 228 225 223 223 225 225 225 229 238 247 252 247 234 228 220 211 215 199
213 213 209 209 208 216 220 220 224 229 230 231 228 228 227 220 221 222 224 227 230 231 232 233 232 230 230 229 227 226 226 228 234 242 247 249 247 237 225 217 215 207 202
214 215 213 214 214 214 220 225 226 227 229 231 232 231 229 226 222 221 221 228 235 233 231 233 233 233 234 234 232 232 232 236 240 245 248 248 241 232 221 217 209 201 200
217 220 217 216 217 218 219 222 226 229 229 230 231 234 234 232 227 224 224 226 230 233 234 236 237 238 238 237 237 239 241 242 244 247 248 246 237 228 223 218 205 204 203
218 221 222 222 222 221 224 227 230 233 234 232 230 232 238 243 241 235 233 233 235 238 239 240 239 238 240 242 244 242 242 246 251 252 250 246 231 223 219 212 205 196 195
220 223 224 225 226 226 227 230 232 235 238 239 239 239 238 241 242 240 239 240 241 244 248 250 252 251 250 248 247 247 249 248 249 248 243 236 223 218 215 208 198 195 213
226 224 225 228 231 231 231 232 234 236 239 241 243 243 242 244 246 245 243 244 245 246 249 251 254 255 257 254 251 248 250 251 252 250 244 228 217 212 205 205 201 200 205
229 235 225 228 231 235 235 236 236 237 239 241 244 241 241 242 248 250 250 250 251 253 254 255 256 257 257 259 257 258 254 252 250 247 241 228 217 206 208 196 206 202 212
230 227 232 225 229 232 237 239 238 237 238 240 242 245 249 247 246 251 253 255 258 257 258 261 263 264 265 263 261 260 257 254 250 244 234 221 210 211 200 195 199 185 207
244 236 233 225 221 227 229 227 231 232 236 235 240 248 251 250 250 248 255 260 261 262 265 263 262 265 266 264 259 261 262 256 248 241 228 208 217 209 201 197 183 201 206
Wind_Speed_850mb
17 15 7 2 9 7 9 5 8 14 23 20 17 14 5 6 6 8 11 9 12 12 13 13 16 20 36 37 30 40 43 41 48 46 56 57 71 53 58 46 33 28 24
17 13 9 3 6 4 6 6 5 16 19 17 13 11 12 10 11 15 14 16 12 10 11 18 20 16 30 40 32 50 39 33 45 53 55 56 62 52 50 41 27 28 26
18 17 9 2 2 3 5 11 11 15 19 18 14 16 20 19 22 19 18 19 18 17 17 18 19 25 36 37 35 34 37 34 35 50 50 55 67 55 45 30 23 27 25
19 19 12 5 3 5 14 17 18 21 25 22 22 23 23 21 19 19 18 16 16 18 17 21 24 23 28 33 33 34 35 38 46 52 48 67 58 46 38 33 26 23 23
22 20 14 12 6 11 24 26 29 30 26 24 25 26 24 21 19 17 20 16 16 20 21 24 23 20 22 35 46 42 42 38 49 46 51 51 49 46 34 27 29 27 24
26 23 19 17 12 20 29 30 29 27 26 24 21 20 21 19 16 13 7 3 6 16 24 26 29 34 44 37 33 28 29 53 51 47 43 41 39 34 28 26 32 30 27
29 27 27 24 20 24 30 30 26 21 21 21 18 15 16 18 18 18 11 11 16 23 30 33 47 44 43 40 43 50 49 33 45 44 29 25 24 26 27 29 32 33 31
34 31 34 31 22 23 27 26 23 19 19 18 15 15 19 23 22 24 17 27 26 28 34 36 54 53 45 48 46 39 37 41 37 22 19 23 28 30 30 33 32 29 22
40 35 37 34 26 30 24 21 18 16 18 17 15 17 21 31 26 20 24 29 34 40 36 39 41 45 52 41 32 28 28 28 29 29 30 30 30 32 29 25 22 19 18
44 41 36 40 33 29 23 21 16 13 15 17 17 18 20 29 30 25 27 33 38 38 48 54 52 49 44 33 25 32 30 28 26 29 31 26 24 26 24 22 18 17 16
44 41 38 43 38 31 27 22 20 11 13 16 20 22 25 27 30 29 29 30 35 43 47 45 47 46 34 27 31 31 29 27 28 31 31 25 21 21 22 21 18 14 9
47 46 42 44 42 39 29 30 23 14 12 18 19 22 23 26 26 28 29 25 28 35 38 41 39 32 29 31 32 28 22 16 12 15 16 17 16 17 15 12 11 9 9
48 49 47 41 45 43 37 33 29 24 16 19 24 25 25 26 25 24 26 26 25 25 29 30 29 29 32 34 33 27 20 15 13 13 14 14 15 16 17 17 14 14 12
53 54 50 47 49 47 43 37 34 31 26 19 26 31 32 30 29 29 32 31 28 26 27 31 31 32 33 33 33 31 27 24 19 20 20 19 20 22 21 19 19 15 12
57 56 55 52 48 48 47 45 43 36 30 23 23 28 37 39 36 33 32 33 32 31 31 31 37 39 39 37 36 35 33 32 30 29 25 23 21 23 28 27 23 15 10
61 62 61 58 57 53 49 49 46 40 34 29 22 16 31 27 32 35 33 29 29 31 35 38 39 41 44 43 42 41 40 38 37 32 29 27 28 28 31 31 25 19 17
66 65 68 62 61 63 60 55 55 49 44 40 35 28 26 29 33 32 35 42 40 40 42 40 41 43 46 48 49 50 48 45 41 37 34 34 32 35 36 35 32 29 30
69 65 66 68 67 63 66 61 56 55 54 49 41 39 35 40 40 37 42 42 53 59 57 51 46 46 47 52 54 55 54 52 49 45 43 42 40 43 43 42 40 38 35
75 73 69 70 68 65 59 62 60 54 52 52 48 47 45 47 48 50 52 56 56 60 62 60 56 52 50 50 54 56 58 58 55 53 52 50 48 49 51 49 45 42 38
77 75 75 72 73 70 68 64 64 62 55 51 49 47 46 50 58 62 66 65 64 61 59 61 62 61 58 56 56 58 59 61 61 60 58 55 55 58 57 53 55 50 40
78 79 79 80 76 76 73 73 70 70 68 60 51 42 41 47 49 60 64 65 64 61 58 56 57 61 65 66 63 63 64 64 64 62 59 56 60 62 57 57 49 45 30
73 76 78 82 86 81 80 74 71 67 68 70 63 56 51 50 50 53 61 63 62 60 58 56 55 55 57 62 67 67 68 69 68 67 64 60 61 64 59 58 50 39 29
77 72 75 77 79 85 84 84 76 69 65 62 64 66 60 57 53 53 57 59 62 63 61 59 59 57 57 58 59 67 73 76 76 72 69 70 74 75 70 59 48 39 46
61 81 72 73 75 78 76 81 81 78 70 65 64 64 59 55 49 49 48 48 51 54 56 57 59 59 57 59 62 68 66 72 78 79 75 74 82 80 74 70 58 52 45
63 67 82 70 71 68 68 65 66 68 71 66 60 58 61 66 58 51 50 48 50 56 57 58 60 62 64 64 64 68 73 74 74 72 72 79 79 79 78 72 57 57 50
63 73 79 67 59 62 56 47 50 52 58 57 57 61 63 62 64 64 49 45 48 50 52 53 56 59 60 62 61 59 65 69 67 65 66 73 74 81 76 58 60 58 46
Wind_Direction_850mb
173 175 183 278 360 16 31 82 103 148 161 162 170 184 176 137 128 115 125 120 144 151 157 157 142 165 181 178 171 177 173 174 147 160 150 155 164 156 147 141 146 141 136
176 178 177 209 349 11 25 125 112 164 166 169 178 175 150 129 110 100 96 91 104 130 166 163 157 160 181 174 173 175 170 166 162 150 158 158 167 149 138 126 125 129 125
187 188 189 173 13 25 67 126 128 144 158 158 147 139 133 119 109 98 97 101 99 95 93 132 144 157 172 187 176 176 172 173 166 149 152 162 161 151 150 145 126 125 126
180 180 174 125 95 58 122 127 135 134 137 136 131 134 135 128 110 104 104 101 94 92 103 129 128 154 159 164 173 164 166 162 151 133 131 148 158 146 147 149 146 139 136
180 182 164 143 95 103 125 127 126 127 128 128 127 131 132 131 132 115 113 98 87 93 112 123 123 154 153 154 161 157 154 155 153 145 145 147 151 165 162 159 155 144 143
184 181 166 150 106 116 128 125 126 126 127 129 128 124 131 136 142 148 153 91 119 123 130 128 144 135 131 133 152 163 154 155 157 158 153 155 159 164 162 156 156 153 136
186 180 168 158 121 121 124 117 119 133 138 133 131 130 145 143 141 144 115 127 128 133 139 135 136 132 137 137 130 137 143 145 140 136 142 157 167 165 156 153 153 140 139
191 184 177 170 157 130 130 118 105 122 142 148 137 131 145 152 148 142 121 128 121 124 136 137 152 141 142 135 131 134 134 145 156 165 135 137 148 155 141 136 142 150 148
195 189 186 184 183 173 158 135 108 97 131 142 139 127 144 142 135 136 138 128 126 123 129 156 157 151 149 140 138 139 147 153 148 140 131 133 138 148 153 161 169 171 169
194 191 188 188 185 182 175 171 148 98 127 132 138 133 136 150 138 132 134 135 134 131 134 131 139 144 143 139 136 140 143 142 147 153 150 144 149 161 161 169 179 179 183
195 191 193 193 190 187 184 181 172 150 136 134 134 138 140 141 139 135 146 147 146 142 142 145 145 148 147 141 133 132 133 126 127 143 150 146 147 152 156 159 161 170 202
197 198 197 197 195 195 192 185 182 182 158 164 150 143 149 152 150 143 138 140 141 151 153 152 153 158 160 157 148 142 144 147 144 149 160 159 156 160 168 179 197 221 239
199 200 200 199 202 201 200 199 195 194 190 181 181 170 160 161 163 164 159 157 154 160 166 166 173 176 177 177 175 178 182 185 200 199 192 189 195 217 230 236 216 214 246
200 202 198 204 205 206 208 211 208 207 204 203 197 194 189 182 176 172 168 164 163 167 171 180 178 180 182 188 196 201 204 209 219 214 208 214 223 223 215 216 225 232 255
202 205 203 203 208 207 211 212 215 219 222 218 220 210 205 203 196 190 188 186 183 186 191 195 200 202 203 204 204 208 212 216 219 218 226 239 234 222 214 221 226 231 243
203 206 207 205 209 209 210 216 219 220 220 228 238 245 224 219 212 211 207 206 210 211 211 214 213 214 215 214 215 218 219 220 221 227 238 246 245 235 227 219 219 224 229
209 205 207 207 209 215 215 217 223 226 227 231 234 233 234 231 219 216 222 226 227 229 230 232 230 228 225 223 223 225 225 225 229 238 247 252 247 234 228 220 211 215 199
213 213 209 209 208 216 220 220 224 229 230 231 228 228 227 220 221 222 224 227 230 231 232 233 232 230 230 229 227 226 226 228 234 242 247 249 247 237 225 217 215 207 202
214 215 213 214 214 214 220 225 226 227 229 231 232 231 229 226 222 221 221 228 235 233 231 233 233 233 234 234 232 232 232 236 240 245 248 248 241 232 221 217 209 201 200
217 220 217 216 217 218 219 222 226 229 229 230 231 234 234 232 227 224 224 226 230 233 234 236 237 238 238 237 237 239 241 242 244 247 248 246 237 228 223 218 205 204 203
218 221 222 222 222 221 224 227 230 233 234 232 230 232 238 243 241 235 233 233 235 238 239 240 239 238 240 242 244 242 242 246 251 252 250 246 231 223 219 212 205 196 195
220 223 224 225 226 226 227 230 232 235 238 239 239 239 238 241 242 240 239 240 241 244 248 250 252 251 250 248 247 247 249 248 249 248 243 236 223 218 215 208 198 195 213
226 224 225 228 231 231 231 232 234 236 239 241 243 243 242 244 246 245 243 244 245 246 249 251 254 255 257 254 251 248 250 251 252 250 244 228 217 212 205 205 201 200 205
229 235 225 228 231 235 235 236 236 237 239 241 244 241 241 242 248 250 250 250 251 253 254 255 256 257 257 259 257 258 254 252 250 247 241 228 217 206 208 196 206 202 212
230 227 232 225 229 232 237 239 238 237 238 240 242 245 249 247 246 251 253 255 258 257 258 261 263 264 265 263 261 260 257 254 250 244 234 221 210 211 200 195 199 185 207
244 236 233 225 221 227 229 227 231 232 236 235 240 248 251 250 250 248 255 260 261 262 265 263 262 265 266 264 259 261 262 256 248 241 228 208 217 209 201 197 183 201 206